Year,Month,Day,Hour,Minute,Value (Times are PST for windgust in km/hr)
2015,12,12,00,00,3.20
2015,12,12,00,01,3.20
2015,12,12,00,02,3.20
2015,12,12,00,03,3.20
2015,12,12,02,22,3.20
2015,12,12,02,23,3.20
2015,12,12,02,24,1.60
2015,12,12,02,25,1.60
2015,12,12,02,26,1.60
2015,12,12,02,27,3.20
2015,12,12,02,28,3.20
2015,12,12,02,29,3.20
2015,12,12,02,30,4.80
2015,12,12,02,31,4.80
2015,12,12,02,32,4.80
2015,12,12,02,33,3.20
2015,12,12,02,34,4.80
2015,12,12,02,35,11.30
2015,12,12,02,36,6.40
2015,12,12,02,37,6.40
2015,12,12,02,38,6.40
2015,12,12,02,39,6.40
2015,12,12,02,40,4.80
2015,12,12,02,41,4.80
2015,12,12,02,42,6.40
2015,12,12,02,43,4.80
2015,12,12,02,44,4.80
2015,12,12,02,45,4.80
2015,12,12,02,46,3.20
2015,12,12,02,47,3.20
2015,12,12,02,48,3.20
2015,12,12,02,49,4.80
2015,12,12,02,50,3.20
2015,12,12,02,51,3.20
2015,12,12,02,52,3.20
2015,12,12,02,53,1.60
2015,12,12,02,54,1.60
2015,12,12,02,55,3.20
2015,12,12,02,56,3.20
2015,12,12,02,57,1.60
2015,12,12,02,58,1.60
2015,12,12,02,59,1.60
2015,12,12,03,00,1.60
2015,12,12,03,03,6.40
2015,12,12,03,04,8.10
2015,12,12,03,05,4.80
2015,12,12,03,06,6.40
2015,12,12,03,07,6.40
2015,12,12,03,08,4.80
2015,12,12,03,09,6.40
2015,12,12,03,10,4.80
2015,12,12,03,11,4.80
2015,12,12,03,12,8.10
2015,12,12,03,13,6.40
2015,12,12,03,14,4.80
2015,12,12,03,15,4.80
2015,12,12,03,16,6.40
2015,12,12,03,17,4.80
2015,12,12,03,18,4.80
2015,12,12,03,19,6.40
2015,12,12,03,20,6.40
2015,12,12,03,21,6.40
2015,12,12,03,22,8.10
2015,12,12,03,23,6.40
2015,12,12,03,24,8.10
2015,12,12,03,25,6.40
2015,12,12,03,26,9.60
2015,12,12,03,27,8.10
2015,12,12,03,28,4.80
2015,12,12,03,29,6.40
2015,12,12,03,30,9.60
2015,12,12,03,31,8.10
2015,12,12,03,32,6.40
2015,12,12,03,33,6.40
2015,12,12,03,34,4.80
2015,12,12,03,35,4.80
2015,12,12,03,36,6.40
2015,12,12,03,37,4.80
2015,12,12,03,38,14.50
2015,12,12,03,39,14.50
2015,12,12,03,40,14.50
2015,12,12,03,41,9.60
2015,12,12,03,42,11.30
2015,12,12,03,43,16.10
2015,12,12,03,44,9.60
2015,12,12,03,45,16.10
2015,12,12,03,46,9.60
2015,12,12,03,47,16.10
2015,12,12,03,48,17.70
2015,12,12,03,49,14.50
2015,12,12,03,50,16.10
2015,12,12,03,51,17.70
2015,12,12,03,52,16.10
2015,12,12,03,53,17.70
2015,12,12,03,54,14.50
2015,12,12,03,55,12.90
2015,12,12,03,56,16.10
2015,12,12,03,57,16.10
2015,12,12,03,58,19.30
2015,12,12,03,59,17.70
2015,12,12,04,00,17.70
2015,12,12,04,01,16.10
2015,12,12,04,02,17.70
2015,12,12,04,03,14.50
2015,12,12,04,04,19.30
2015,12,12,04,05,14.50
2015,12,12,04,06,12.90
2015,12,12,04,07,19.30
2015,12,12,04,08,19.30
2015,12,12,04,09,24.20
2015,12,12,04,10,17.70
2015,12,12,04,11,11.30
2015,12,12,04,12,19.30
2015,12,12,04,13,14.50
2015,12,12,04,14,11.30
2015,12,12,04,15,9.60
2015,12,12,04,16,19.30
2015,12,12,04,17,19.30
2015,12,12,04,18,22.50
2015,12,12,04,19,11.30
2015,12,12,04,20,9.60
2015,12,12,04,21,14.50
2015,12,12,04,22,14.50
2015,12,12,04,23,17.70
2015,12,12,04,24,17.70
2015,12,12,04,25,16.10
2015,12,12,04,26,16.10
2015,12,12,04,27,16.10
2015,12,12,04,28,17.70
2015,12,12,04,29,16.10
2015,12,12,04,30,12.90
2015,12,12,04,31,14.50
2015,12,12,04,32,9.60
2015,12,12,04,33,14.50
2015,12,12,04,34,16.10
2015,12,12,04,35,17.70
2015,12,12,04,36,17.70
2015,12,12,04,37,11.30
2015,12,12,04,38,11.30
2015,12,12,04,39,14.50
2015,12,12,04,40,11.30
2015,12,12,04,41,11.30
2015,12,12,04,42,20.90
2015,12,12,04,43,19.30
2015,12,12,04,44,19.30
2015,12,12,04,45,17.70
2015,12,12,04,46,14.50
2015,12,12,04,47,14.50
2015,12,12,04,48,20.90
2015,12,12,04,49,14.50
2015,12,12,04,50,19.30
2015,12,12,04,51,14.50
2015,12,12,04,52,11.30
2015,12,12,04,53,16.10
2015,12,12,04,54,19.30
2015,12,12,04,55,19.30
2015,12,12,04,56,16.10
2015,12,12,04,57,19.30
2015,12,12,04,58,12.90
2015,12,12,04,59,11.30
2015,12,12,05,00,17.70
2015,12,12,05,01,16.10
2015,12,12,05,02,17.70
2015,12,12,05,03,8.10
2015,12,12,05,04,11.30
2015,12,12,05,05,11.30
2015,12,12,05,06,16.10
2015,12,12,05,07,9.60
2015,12,12,05,08,20.90
2015,12,12,05,09,20.90
2015,12,12,05,10,12.90
2015,12,12,05,11,17.70
2015,12,12,05,12,6.40
2015,12,12,05,13,17.70
2015,12,12,05,14,12.90
2015,12,12,05,15,16.10
2015,12,12,05,16,19.30
2015,12,12,05,17,17.70
2015,12,12,05,18,8.10
2015,12,12,05,19,19.30
2015,12,12,05,20,9.60
2015,12,12,05,21,22.50
2015,12,12,05,22,25.70
2015,12,12,05,23,9.60
2015,12,12,05,24,9.60
2015,12,12,05,25,19.30
2015,12,12,05,26,20.90
2015,12,12,05,27,19.30
2015,12,12,05,28,24.20
2015,12,12,05,29,29.00
2015,12,12,05,30,20.90
2015,12,12,05,31,11.30
2015,12,12,05,32,22.50
2015,12,12,05,33,22.50
2015,12,12,05,34,16.10
2015,12,12,05,35,14.50
2015,12,12,05,36,19.30
2015,12,12,05,37,27.40
2015,12,12,05,38,20.90
2015,12,12,05,39,19.30
2015,12,12,05,40,17.70
2015,12,12,05,41,19.30
2015,12,12,05,42,24.20
2015,12,12,05,43,17.70
2015,12,12,05,44,17.70
2015,12,12,05,45,24.20
2015,12,12,05,46,16.10
2015,12,12,05,47,22.50
2015,12,12,05,48,16.10
2015,12,12,05,49,19.30
2015,12,12,05,50,17.70
2015,12,12,05,51,11.30
2015,12,12,05,52,16.10
2015,12,12,05,53,19.30
2015,12,12,05,54,20.90
2015,12,12,05,55,20.90
2015,12,12,05,56,29.00
2015,12,12,05,57,27.40
2015,12,12,05,58,27.40
2015,12,12,05,59,27.40
2015,12,12,06,00,24.20
2015,12,12,06,01,25.70
2015,12,12,06,02,24.20
2015,12,12,06,03,20.90
2015,12,12,06,04,27.40
2015,12,12,06,05,25.70
2015,12,12,06,06,24.20
2015,12,12,06,07,22.50
2015,12,12,06,08,6.40
2015,12,12,06,09,14.50
2015,12,12,06,10,16.10
2015,12,12,06,11,11.30
2015,12,12,06,12,16.10
2015,12,12,06,13,12.90
2015,12,12,06,14,17.70
2015,12,12,06,15,16.10
2015,12,12,06,16,16.10
2015,12,12,06,17,17.70
2015,12,12,06,18,12.90
2015,12,12,06,19,19.30
2015,12,12,06,20,20.90
2015,12,12,06,21,16.10
2015,12,12,06,22,17.70
2015,12,12,06,23,16.10
2015,12,12,06,24,11.30
2015,12,12,06,25,17.70
2015,12,12,06,26,14.50
2015,12,12,06,27,11.30
2015,12,12,06,28,9.60
2015,12,12,06,29,12.90
2015,12,12,06,30,16.10
2015,12,12,06,31,17.70
2015,12,12,06,32,19.30
2015,12,12,06,33,12.90
2015,12,12,06,34,11.30
2015,12,12,06,35,17.70
2015,12,12,06,36,20.90
2015,12,12,06,37,25.70
2015,12,12,06,38,17.70
2015,12,12,06,39,19.30
2015,12,12,06,40,19.30
2015,12,12,06,41,17.70
2015,12,12,06,42,17.70
2015,12,12,06,43,9.60
2015,12,12,06,44,8.10
2015,12,12,06,45,17.70
2015,12,12,06,46,19.30
2015,12,12,06,47,16.10
2015,12,12,06,48,17.70
2015,12,12,06,49,17.70
2015,12,12,06,50,12.90
2015,12,12,06,51,16.10
2015,12,12,06,52,16.10
2015,12,12,06,53,12.90
2015,12,12,06,54,19.30
2015,12,12,06,55,14.50
2015,12,12,06,56,14.50
2015,12,12,06,57,16.10
2015,12,12,06,58,9.60
2015,12,12,06,59,11.30
2015,12,12,07,00,19.30
2015,12,12,07,01,14.50
2015,12,12,07,02,19.30
2015,12,12,07,03,17.70
2015,12,12,07,04,9.60
2015,12,12,07,05,11.30
2015,12,12,07,06,9.60
2015,12,12,07,07,14.50
2015,12,12,07,08,8.10
2015,12,12,07,09,14.50
2015,12,12,07,10,11.30
2015,12,12,07,11,9.60
2015,12,12,07,12,11.30
2015,12,12,07,13,12.90
2015,12,12,07,14,12.90
2015,12,12,07,15,19.30
2015,12,12,07,16,16.10
2015,12,12,07,17,16.10
2015,12,12,07,18,19.30
2015,12,12,07,19,11.30
2015,12,12,07,20,14.50
2015,12,12,07,21,11.30
2015,12,12,07,22,9.60
2015,12,12,07,23,16.10
2015,12,12,07,24,14.50
2015,12,12,07,25,9.60
2015,12,12,07,26,14.50
2015,12,12,07,27,11.30
2015,12,12,07,28,17.70
2015,12,12,07,29,17.70
2015,12,12,07,30,12.90
2015,12,12,07,31,11.30
2015,12,12,07,32,17.70
2015,12,12,07,33,16.10
2015,12,12,07,34,11.30
2015,12,12,07,35,9.60
2015,12,12,07,36,8.10
2015,12,12,07,37,17.70
2015,12,12,07,38,11.30
2015,12,12,07,39,16.10
2015,12,12,07,40,16.10
2015,12,12,07,41,14.50
2015,12,12,07,42,12.90
2015,12,12,07,43,20.90
2015,12,12,07,44,16.10
2015,12,12,07,45,14.50
2015,12,12,07,46,11.30
2015,12,12,07,47,11.30
2015,12,12,07,48,6.40
2015,12,12,07,49,16.10
2015,12,12,07,50,9.60
2015,12,12,07,51,6.40
2015,12,12,07,52,8.10
2015,12,12,07,53,9.60
2015,12,12,07,54,14.50
2015,12,12,07,55,11.30
2015,12,12,07,56,14.50
2015,12,12,07,57,16.10
2015,12,12,07,58,12.90
2015,12,12,07,59,9.60
2015,12,12,08,00,6.40
2015,12,12,08,01,8.10
2015,12,12,08,02,9.60
2015,12,12,08,03,12.90
2015,12,12,08,04,11.30
2015,12,12,08,05,9.60
2015,12,12,08,06,11.30
2015,12,12,08,07,8.10
2015,12,12,08,08,8.10
2015,12,12,08,09,9.60
2015,12,12,08,10,14.50
2015,12,12,08,11,4.80
2015,12,12,08,12,1.60
2015,12,12,08,13,1.60
2015,12,12,08,14,6.40
2015,12,12,08,15,6.40
2015,12,12,08,16,9.60
2015,12,12,08,17,3.20
2015,12,12,08,18,6.40
2015,12,12,08,19,8.10
2015,12,12,08,20,8.10
2015,12,12,08,21,8.10
2015,12,12,08,22,8.10
2015,12,12,08,23,8.10
2015,12,12,08,24,4.80
2015,12,12,08,25,3.20
2015,12,12,08,26,4.80
2015,12,12,08,27,1.60
2015,12,12,08,28,3.20
2015,12,12,08,29,1.60
2015,12,12,08,30,1.60
2015,12,12,08,32,1.60
2015,12,12,08,50,4.80
2015,12,12,08,51,9.60
2015,12,12,08,52,8.10
2015,12,12,08,53,14.50
2015,12,12,08,54,11.30
2015,12,12,08,55,9.60
2015,12,12,08,56,6.40
2015,12,12,08,57,9.60
2015,12,12,08,58,8.10
2015,12,12,08,59,4.80
2015,12,12,09,00,4.80
2015,12,12,09,01,8.10
2015,12,12,09,02,6.40
2015,12,12,09,03,6.40
2015,12,12,09,04,6.40
2015,12,12,09,05,4.80
2015,12,12,09,06,8.10
2015,12,12,09,07,4.80
2015,12,12,09,08,8.10
2015,12,12,09,09,6.40
2015,12,12,09,10,9.60
2015,12,12,09,11,6.40
2015,12,12,09,12,8.10
2015,12,12,09,13,6.40
2015,12,12,09,14,11.30
2015,12,12,09,15,12.90
2015,12,12,09,16,9.60
2015,12,12,09,17,4.80
2015,12,12,09,18,6.40
2015,12,12,09,19,6.40
2015,12,12,09,20,6.40
2015,12,12,09,21,4.80
2015,12,12,09,22,8.10
2015,12,12,09,23,9.60
2015,12,12,09,24,8.10
2015,12,12,09,25,4.80
2015,12,12,09,26,3.20
2015,12,12,09,28,4.80
2015,12,12,09,29,6.40
2015,12,12,09,30,4.80
2015,12,12,09,31,16.10
2015,12,12,09,32,12.90
2015,12,12,09,33,11.30
2015,12,12,09,34,11.30
2015,12,12,09,35,17.70
2015,12,12,09,36,20.90
2015,12,12,09,37,19.30
2015,12,12,09,38,17.70
2015,12,12,09,39,19.30
2015,12,12,09,40,17.70
2015,12,12,09,41,17.70
2015,12,12,09,42,19.30
2015,12,12,09,43,20.90
2015,12,12,09,44,20.90
2015,12,12,09,45,19.30
2015,12,12,09,46,14.50
2015,12,12,09,47,19.30
2015,12,12,09,48,20.90
2015,12,12,09,49,12.90
2015,12,12,09,50,33.80
2015,12,12,09,51,27.40
2015,12,12,09,52,30.60
2015,12,12,09,53,17.70
2015,12,12,09,54,20.90
2015,12,12,09,55,25.70
2015,12,12,09,56,25.70
2015,12,12,09,57,27.40
2015,12,12,09,58,22.50
2015,12,12,09,59,27.40
2015,12,12,10,00,24.20
2015,12,12,10,01,20.90
2015,12,12,10,02,32.20
2015,12,12,10,03,27.40
2015,12,12,10,04,19.30
2015,12,12,10,05,30.60
2015,12,12,10,06,22.50
2015,12,12,10,07,27.40
2015,12,12,10,08,27.40
2015,12,12,10,09,37.00
2015,12,12,10,10,37.00
2015,12,12,10,11,30.60
2015,12,12,10,12,33.80
2015,12,12,10,13,38.60
2015,12,12,10,14,32.20
2015,12,12,10,15,40.20
2015,12,12,10,16,46.70
2015,12,12,10,17,38.60
2015,12,12,10,18,35.40
2015,12,12,10,19,37.00
2015,12,12,10,20,51.50
2015,12,12,10,21,33.80
2015,12,12,10,22,35.40
2015,12,12,10,23,53.10
2015,12,12,10,24,45.10
2015,12,12,10,25,49.90
2015,12,12,10,26,53.10
2015,12,12,10,27,45.10
2015,12,12,10,28,48.30
2015,12,12,10,29,35.40
2015,12,12,10,30,25.70
2015,12,12,10,31,38.60
2015,12,12,10,32,45.10
2015,12,12,10,33,32.20
2015,12,12,10,34,46.70
2015,12,12,10,35,46.70
2015,12,12,10,36,46.70
2015,12,12,10,37,43.50
2015,12,12,10,38,40.20
2015,12,12,10,39,38.60
2015,12,12,10,40,38.60
2015,12,12,10,41,35.40
2015,12,12,10,42,43.50
2015,12,12,10,43,37.00
2015,12,12,10,44,37.00
2015,12,12,10,45,35.40
2015,12,12,10,46,41.80
2015,12,12,10,47,40.20
2015,12,12,10,48,33.80
2015,12,12,10,49,38.60
2015,12,12,10,50,35.40
2015,12,12,10,51,41.80
2015,12,12,10,52,35.40
2015,12,12,10,53,53.10
2015,12,12,10,54,46.70
2015,12,12,10,55,48.30
2015,12,12,10,56,41.80
2015,12,12,10,57,59.50
2015,12,12,10,58,43.50
2015,12,12,10,59,57.90
2015,12,12,11,00,53.10
2015,12,12,11,01,37.00
2015,12,12,11,02,59.50
2015,12,12,11,03,43.50
2015,12,12,11,04,35.40
2015,12,12,11,05,48.30
2015,12,12,11,06,48.30
2015,12,12,11,07,54.70
2015,12,12,11,08,53.10
2015,12,12,11,09,37.00
2015,12,12,11,10,29.00
2015,12,12,11,11,32.20
2015,12,12,11,12,43.50
2015,12,12,11,13,48.30
2015,12,12,11,14,46.70
2015,12,12,11,15,41.80
2015,12,12,11,16,48.30
2015,12,12,11,17,53.10
2015,12,12,11,18,51.50
2015,12,12,11,19,57.90
2015,12,12,11,20,51.50
2015,12,12,11,21,53.10
2015,12,12,11,22,54.70
2015,12,12,11,23,41.80
2015,12,12,11,24,56.30
2015,12,12,11,25,62.70
2015,12,12,11,26,64.40
2015,12,12,11,27,53.10
2015,12,12,11,28,66.00
2015,12,12,11,29,46.70
2015,12,12,11,30,53.10
2015,12,12,11,31,61.20
2015,12,12,11,32,59.50
2015,12,12,11,33,53.10
2015,12,12,11,34,74.00
2015,12,12,11,35,53.10
2015,12,12,11,36,53.10
2015,12,12,11,37,57.90
2015,12,12,11,38,61.20
2015,12,12,11,39,43.50
2015,12,12,11,40,62.70
2015,12,12,11,41,57.90
2015,12,12,11,42,46.70
2015,12,12,11,43,53.10
2015,12,12,11,44,59.50
2015,12,12,11,45,64.40
2015,12,12,11,46,59.50
2015,12,12,11,47,56.30
2015,12,12,11,48,48.30
2015,12,12,11,49,57.90
2015,12,12,11,50,46.70
2015,12,12,11,51,56.30
2015,12,12,11,52,53.10
2015,12,12,11,53,48.30
2015,12,12,11,54,49.90
2015,12,12,11,55,45.10
2015,12,12,11,56,48.30
2015,12,12,11,57,59.50
2015,12,12,11,58,61.20
2015,12,12,11,59,48.30
2015,12,12,12,00,53.10
2015,12,12,12,01,54.70
2015,12,12,12,02,56.30
2015,12,12,12,03,43.50
2015,12,12,12,04,53.10
2015,12,12,12,05,62.70
2015,12,12,12,06,45.10
2015,12,12,12,07,62.70
2015,12,12,12,08,74.00
2015,12,12,12,09,61.20
2015,12,12,12,10,54.70
2015,12,12,12,11,45.10
2015,12,12,12,12,54.70
2015,12,12,12,13,67.60
2015,12,12,12,14,61.20
2015,12,12,12,15,57.90
2015,12,12,12,16,53.10
2015,12,12,12,17,64.40
2015,12,12,12,18,51.50
2015,12,12,12,19,56.30
2015,12,12,12,20,53.10
2015,12,12,12,21,51.50
2015,12,12,12,22,46.70
2015,12,12,12,23,59.50
2015,12,12,12,24,46.70
2015,12,12,12,25,56.30
2015,12,12,12,26,41.80
2015,12,12,12,27,61.20
2015,12,12,12,28,53.10
2015,12,12,12,29,57.90
2015,12,12,12,30,61.20
2015,12,12,12,31,59.50
2015,12,12,12,32,56.30
2015,12,12,12,33,51.50
2015,12,12,12,34,67.60
2015,12,12,12,35,56.30
2015,12,12,12,36,67.60
2015,12,12,12,37,51.50
2015,12,12,12,38,59.50
2015,12,12,12,39,46.70
2015,12,12,12,40,49.90
2015,12,12,12,41,59.50
2015,12,12,12,42,67.60
2015,12,12,12,43,53.10
2015,12,12,12,44,59.50
2015,12,12,12,45,61.20
2015,12,12,12,46,59.50
2015,12,12,12,47,40.20
2015,12,12,12,48,64.40
2015,12,12,12,49,69.20
2015,12,12,12,50,57.90
2015,12,12,12,51,53.10
2015,12,12,12,52,62.70
2015,12,12,12,53,46.70
2015,12,12,12,54,59.50
2015,12,12,12,55,54.70
2015,12,12,12,56,51.50
2015,12,12,12,57,54.70
2015,12,12,12,58,59.50
2015,12,12,12,59,61.20
2015,12,12,13,00,46.70
2015,12,12,13,01,61.20
2015,12,12,13,02,54.70
2015,12,12,13,03,56.30
2015,12,12,13,04,53.10
2015,12,12,13,05,43.50
2015,12,12,13,06,72.40
2015,12,12,13,07,40.20
2015,12,12,13,08,54.70
2015,12,12,13,09,59.50
2015,12,12,13,10,64.40
2015,12,12,13,11,64.40
2015,12,12,13,12,56.30
2015,12,12,13,13,59.50
2015,12,12,13,14,51.50
2015,12,12,13,15,64.40
2015,12,12,13,16,54.70
2015,12,12,13,17,56.30
2015,12,12,13,18,57.90
2015,12,12,13,19,61.20
2015,12,12,13,20,66.00
2015,12,12,13,21,54.70
2015,12,12,13,22,48.30
2015,12,12,13,23,82.10
2015,12,12,13,24,64.40
2015,12,12,13,25,61.20
2015,12,12,13,26,53.10
2015,12,12,13,27,62.70
2015,12,12,13,28,56.30
2015,12,12,13,29,72.40
2015,12,12,13,30,54.70
2015,12,12,13,31,54.70
2015,12,12,13,32,56.30
2015,12,12,13,33,64.40
2015,12,12,13,34,43.50
2015,12,12,13,35,56.30
2015,12,12,13,36,54.70
2015,12,12,13,37,51.50
2015,12,12,13,38,43.50
2015,12,12,13,39,54.70
2015,12,12,13,40,53.10
2015,12,12,13,41,53.10
2015,12,12,13,42,53.10
2015,12,12,13,43,54.70
2015,12,12,13,44,54.70
2015,12,12,13,45,49.90
2015,12,12,13,46,56.30
2015,12,12,13,47,59.50
2015,12,12,13,48,53.10
2015,12,12,13,49,61.20
2015,12,12,13,50,49.90
2015,12,12,13,51,66.00
2015,12,12,13,52,56.30
2015,12,12,13,53,53.10
2015,12,12,13,54,62.70
2015,12,12,13,55,66.00
2015,12,12,13,56,48.30
2015,12,12,13,57,49.90
2015,12,12,13,58,64.40
2015,12,12,13,59,48.30
2015,12,12,14,00,61.20
2015,12,12,14,01,53.10
2015,12,12,14,02,64.40
2015,12,12,14,03,53.10
2015,12,12,14,04,59.50
2015,12,12,14,05,46.70
2015,12,12,14,06,69.20
2015,12,12,14,07,54.70
2015,12,12,14,08,72.40
2015,12,12,14,09,49.90
2015,12,12,14,10,67.60
2015,12,12,14,11,61.20
2015,12,12,14,12,59.50
2015,12,12,14,13,54.70
2015,12,12,14,14,53.10
2015,12,12,14,15,51.50
2015,12,12,14,16,53.10
2015,12,12,14,17,49.90
2015,12,12,14,18,51.50
2015,12,12,14,19,59.50
2015,12,12,14,20,56.30
2015,12,12,14,21,56.30
2015,12,12,14,22,53.10
2015,12,12,14,23,54.70
2015,12,12,14,24,64.40
2015,12,12,14,25,61.20
2015,12,12,14,26,53.10
2015,12,12,14,27,72.40
2015,12,12,14,28,62.70
2015,12,12,14,29,59.50
2015,12,12,14,30,64.40
2015,12,12,14,31,59.50
2015,12,12,14,32,64.40
2015,12,12,14,33,43.50
2015,12,12,14,34,70.80
2015,12,12,14,35,53.10
2015,12,12,14,36,64.40
2015,12,12,14,37,51.50
2015,12,12,14,38,45.10
2015,12,12,14,39,46.70
2015,12,12,14,40,51.50
2015,12,12,14,41,74.00
2015,12,12,14,42,54.70
2015,12,12,14,43,62.70
2015,12,12,14,44,62.70
2015,12,12,14,45,57.90
2015,12,12,14,46,54.70
2015,12,12,14,47,67.60
2015,12,12,14,48,57.90
2015,12,12,14,49,61.20
2015,12,12,14,50,57.90
2015,12,12,14,51,41.80
2015,12,12,14,52,57.90
2015,12,12,14,53,48.30
2015,12,12,14,54,59.50
2015,12,12,14,55,56.30
2015,12,12,14,56,49.90
2015,12,12,14,57,43.50
2015,12,12,14,58,53.10
2015,12,12,14,59,56.30
2015,12,12,15,00,43.50
2015,12,12,15,01,48.30
2015,12,12,15,02,48.30
2015,12,12,15,03,45.10
2015,12,12,15,04,40.20
2015,12,12,15,05,53.10
2015,12,12,15,06,48.30
2015,12,12,15,07,53.10
2015,12,12,15,08,62.70
2015,12,12,15,09,48.30
2015,12,12,15,10,53.10
2015,12,12,15,11,43.50
2015,12,12,15,12,45.10
2015,12,12,15,13,53.10
2015,12,12,15,14,53.10
2015,12,12,15,15,48.30
2015,12,12,15,16,45.10
2015,12,12,15,17,51.50
2015,12,12,15,18,69.20
2015,12,12,15,19,54.70
2015,12,12,15,20,37.00
2015,12,12,15,21,37.00
2015,12,12,15,22,51.50
2015,12,12,15,23,46.70
2015,12,12,15,24,45.10
2015,12,12,15,25,41.80
2015,12,12,15,26,43.50
2015,12,12,15,27,41.80
2015,12,12,15,28,38.60
2015,12,12,15,29,51.50
2015,12,12,15,30,51.50
2015,12,12,15,31,41.80
2015,12,12,15,32,46.70
2015,12,12,15,33,38.60
2015,12,12,15,34,45.10
2015,12,12,15,35,48.30
2015,12,12,15,36,41.80
2015,12,12,15,37,32.20
2015,12,12,15,38,40.20
2015,12,12,15,39,41.80
2015,12,12,15,40,46.70
2015,12,12,15,41,45.10
2015,12,12,15,42,38.60
2015,12,12,15,43,38.60
2015,12,12,15,44,43.50
2015,12,12,15,45,38.60
2015,12,12,15,46,41.80
2015,12,12,15,47,54.70
2015,12,12,15,48,40.20
2015,12,12,15,49,29.00
2015,12,12,15,50,49.90
2015,12,12,15,51,38.60
2015,12,12,15,52,35.40
2015,12,12,15,53,32.20
2015,12,12,15,54,37.00
2015,12,12,15,55,37.00
2015,12,12,15,56,30.60
2015,12,12,15,57,40.20
2015,12,12,15,58,37.00
2015,12,12,15,59,33.80
2015,12,12,16,00,37.00
2015,12,12,16,01,40.20
2015,12,12,16,02,38.60
2015,12,12,16,03,40.20
2015,12,12,16,04,40.20
2015,12,12,16,05,43.50
2015,12,12,16,06,37.00
2015,12,12,16,07,24.20
2015,12,12,16,08,25.70
2015,12,12,16,09,32.20
2015,12,12,16,10,33.80
2015,12,12,16,11,33.80
2015,12,12,16,12,29.00
2015,12,12,16,13,38.60
2015,12,12,16,14,32.20
2015,12,12,16,15,32.20
2015,12,12,16,16,35.40
2015,12,12,16,17,33.80
2015,12,12,16,18,19.30
2015,12,12,16,19,27.40
2015,12,12,16,20,33.80
2015,12,12,16,21,29.00
2015,12,12,16,22,33.80
2015,12,12,16,23,33.80
2015,12,12,16,24,37.00
2015,12,12,16,25,40.20
2015,12,12,16,26,32.20
2015,12,12,16,27,33.80
2015,12,12,16,28,33.80
2015,12,12,16,29,27.40
2015,12,12,16,30,33.80
2015,12,12,16,31,43.50
2015,12,12,16,32,43.50
2015,12,12,16,33,41.80
2015,12,12,16,34,30.60
2015,12,12,16,35,29.00
2015,12,12,16,36,37.00
2015,12,12,16,37,19.30
2015,12,12,16,38,27.40
2015,12,12,16,39,35.40
2015,12,12,16,40,38.60
2015,12,12,16,41,30.60
2015,12,12,16,42,33.80
2015,12,12,16,43,32.20
2015,12,12,16,44,38.60
2015,12,12,16,45,25.70
2015,12,12,16,46,38.60
2015,12,12,16,47,32.20
2015,12,12,16,48,29.00
2015,12,12,16,49,24.20
2015,12,12,16,50,29.00
2015,12,12,16,51,29.00
2015,12,12,16,52,27.40
2015,12,12,16,53,30.60
2015,12,12,16,54,37.00
2015,12,12,16,55,27.40
2015,12,12,16,56,30.60
2015,12,12,16,57,20.90
2015,12,12,16,58,24.20
2015,12,12,16,59,30.60
2015,12,12,17,00,27.40
2015,12,12,17,01,27.40
2015,12,12,17,02,30.60
2015,12,12,17,03,27.40
2015,12,12,17,04,20.90
2015,12,12,17,05,29.00
2015,12,12,17,06,24.20
2015,12,12,17,07,19.30
2015,12,12,17,08,19.30
2015,12,12,17,09,22.50
2015,12,12,17,10,20.90
2015,12,12,17,11,22.50
2015,12,12,17,12,29.00
2015,12,12,17,13,22.50
2015,12,12,17,14,20.90
2015,12,12,17,15,14.50
2015,12,12,17,16,22.50
2015,12,12,17,17,17.70
2015,12,12,17,18,19.30
2015,12,12,17,19,22.50
2015,12,12,17,20,19.30
2015,12,12,17,21,20.90
2015,12,12,17,22,19.30
2015,12,12,17,23,24.20
2015,12,12,17,24,22.50
2015,12,12,17,25,29.00
2015,12,12,17,26,22.50
2015,12,12,17,27,29.00
2015,12,12,17,28,29.00
2015,12,12,17,29,17.70
2015,12,12,17,30,22.50
2015,12,12,17,31,20.90
2015,12,12,17,32,20.90
2015,12,12,17,33,16.10
2015,12,12,17,34,22.50
2015,12,12,17,35,27.40
2015,12,12,17,36,20.90
2015,12,12,17,37,22.50
2015,12,12,17,38,22.50
2015,12,12,17,39,22.50
2015,12,12,17,40,22.50
2015,12,12,17,41,20.90
2015,12,12,17,42,20.90
2015,12,12,17,43,22.50
2015,12,12,17,44,17.70
2015,12,12,17,45,24.20
2015,12,12,17,46,20.90
2015,12,12,17,47,24.20
2015,12,12,17,48,22.50
2015,12,12,17,49,29.00
2015,12,12,17,50,22.50
2015,12,12,17,51,27.40
2015,12,12,17,52,25.70
2015,12,12,17,53,19.30
2015,12,12,17,54,22.50
2015,12,12,17,55,22.50
2015,12,12,17,56,20.90
2015,12,12,17,57,22.50
2015,12,12,17,58,17.70
2015,12,12,17,59,20.90
2015,12,12,18,00,17.70
2015,12,12,18,01,22.50
2015,12,12,18,02,17.70
2015,12,12,18,03,19.30
2015,12,12,18,04,14.50
2015,12,12,18,05,19.30
2015,12,12,18,06,20.90
2015,12,12,18,07,24.20
2015,12,12,18,08,16.10
2015,12,12,18,09,20.90
2015,12,12,18,10,19.30
2015,12,12,18,11,24.20
2015,12,12,18,12,19.30
2015,12,12,18,13,20.90
2015,12,12,18,14,17.70
2015,12,12,18,15,19.30
2015,12,12,18,16,16.10
2015,12,12,18,17,16.10
2015,12,12,18,18,20.90
2015,12,12,18,19,16.10
2015,12,12,18,20,14.50
2015,12,12,18,21,17.70
2015,12,12,18,22,17.70
2015,12,12,18,23,17.70
2015,12,12,18,24,20.90
2015,12,12,18,25,14.50
2015,12,12,18,26,17.70
2015,12,12,18,27,14.50
2015,12,12,18,28,12.90
2015,12,12,18,29,22.50
2015,12,12,18,30,17.70
2015,12,12,18,31,17.70
2015,12,12,18,32,20.90
2015,12,12,18,33,24.20
2015,12,12,18,34,25.70
2015,12,12,18,35,19.30
2015,12,12,18,36,20.90
2015,12,12,18,37,22.50
2015,12,12,18,38,22.50
2015,12,12,18,39,16.10
2015,12,12,18,40,20.90
2015,12,12,18,41,25.70
2015,12,12,18,42,29.00
2015,12,12,18,43,25.70
2015,12,12,18,44,22.50
2015,12,12,18,45,30.60
2015,12,12,18,46,17.70
2015,12,12,18,47,17.70
2015,12,12,18,48,25.70
2015,12,12,18,49,32.20
2015,12,12,18,50,27.40
2015,12,12,18,51,32.20
2015,12,12,18,52,25.70
2015,12,12,18,53,30.60
2015,12,12,18,54,29.00
2015,12,12,18,55,29.00
2015,12,12,18,56,25.70
2015,12,12,18,57,29.00
2015,12,12,18,58,24.20
2015,12,12,18,59,24.20
2015,12,12,19,00,24.20
2015,12,12,19,01,24.20
2015,12,12,19,02,17.70
2015,12,12,19,03,41.80
2015,12,12,19,04,27.40
2015,12,12,19,05,29.00
2015,12,12,19,06,24.20
2015,12,12,19,07,22.50
2015,12,12,19,08,22.50
2015,12,12,19,09,19.30
2015,12,12,19,10,24.20
2015,12,12,19,11,24.20
2015,12,12,19,12,25.70
2015,12,12,19,13,24.20
2015,12,12,19,14,22.50
2015,12,12,19,15,24.20
2015,12,12,19,16,17.70
2015,12,12,19,17,27.40
2015,12,12,19,18,24.20
2015,12,12,19,19,22.50
2015,12,12,19,20,20.90
2015,12,12,19,21,30.60
2015,12,12,19,22,32.20
2015,12,12,19,23,29.00
2015,12,12,19,24,24.20
2015,12,12,19,25,40.20
2015,12,12,19,26,29.00
2015,12,12,19,27,27.40
2015,12,12,19,28,43.50
2015,12,12,19,29,30.60
2015,12,12,19,30,25.70
2015,12,12,19,31,24.20
2015,12,12,19,32,30.60
2015,12,12,19,33,22.50
2015,12,12,19,34,27.40
2015,12,12,19,35,25.70
2015,12,12,19,36,25.70
2015,12,12,19,37,19.30
2015,12,12,19,38,20.90
2015,12,12,19,39,27.40
2015,12,12,19,40,30.60
2015,12,12,19,41,24.20
2015,12,12,19,42,32.20
2015,12,12,19,43,25.70
2015,12,12,19,44,30.60
2015,12,12,19,45,30.60
2015,12,12,19,46,25.70
2015,12,12,19,47,25.70
2015,12,12,19,48,25.70
2015,12,12,19,49,25.70
2015,12,12,19,50,22.50
2015,12,12,19,51,25.70
2015,12,12,19,52,27.40
2015,12,12,19,53,29.00
2015,12,12,19,54,22.50
2015,12,12,19,55,32.20
2015,12,12,19,56,27.40
2015,12,12,19,57,43.50
2015,12,12,19,58,32.20
2015,12,12,19,59,30.60
2015,12,12,20,00,32.20
2015,12,12,20,01,33.80
2015,12,12,20,02,22.50
2015,12,12,20,03,25.70
2015,12,12,20,04,22.50
2015,12,12,20,05,30.60